Terug naar catalogus

STARLINK-32090

ActiefCommunicatieVLEO
NORAD 59691·PAYLOAD·🇺🇸 United States

Gelanceerd May 8, 2024 vanaf Cape Canaveral Space Force Station

Loading…

Volgende Passages (komende 24 uur)

TLE

VersSource: CelesTrak SupGP

Epoch: Sep 14, 2026, 20:40 UTC

1 59691C 24086K   26257.86159722  .00018693  00000+0  67715-3 0  2574
2 59691  43.0033  75.4286 0001717 272.8386 267.7102 15.27563573    19

Volg STARLINK-32090 in realtime met AllMySat

Download on the App Store